Showing default

GORIZONT 19, 20263

Orbit data source: Space-Track

GORIZONT 19, 20263 is a payload satellite owned by MSvyaz (CIS) in GEO that was launched on Thu, 28 Sep 1989 UTC via a PROTON-K/DM-2 launch vehicle from the Tyuratam Missile And Space Complex (TTMTR). Payload-class satellites include a variety of spacecraft equipped with specific instruments for various scientific and technological missions. These include communications satellites like Starlink; space stations such as the ISS; scientific satellites like the Hubble; Earth observation satellites from companies like Planet Labs, Umbra, and HawkEye 360; GPS; miniature CubeSats for education and research; and military/defense satellites.

Not visible in the next 10 days
Identifier
20263, 1989-081A
Orbit
GEO
Country
Flag of CISCIS
Related business
Manufacturer
NPO PM
Mission
Non-operational Civil Communications
Bus & Motor
GORIZONT, Unknown motor
Mass
2,120 kg wet, ~2,000 kg dry
Launch date (UTC)
1989-09-28 (36 years ago)
Launch vehicle
PROTON-K/DM-2
Launch site
Tyuratam Missile And Space Complex (TTMTR)
Object type
Payload
Rocket body
Debris
Shape & HBR
Cyl + 2 Pan, 4.8 m
Radar Cross Section
23.870 m², Large (>1 m²)

Expand to show TLE details & history
Last TLE update: 17 hours ago

TLE from 17 hours ago
0 GORIZONT 19
1 20263U 89081A   26035.29319860 -.00000348  00000-0  00000+0 0  9998
2 20263  12.2208 334.3812 0006195 280.3420  91.4643  1.00225284 46016
Epoch: 2026-02-04T07:02Z
TLE epoch observation values (Epoch: 2026-02-04T07:02:12.359Z)
Latitude
2.48914°
Longitude
106.00349°
Altitude
35,799.47 km
Speed
3.074 km/s
True Right ascension
23h 04m 04s
True Declination
2° 29' 12"
Sunlit
Object was in daylight at epoch
Visualization orbit readout
Latitude
Unknown
Longitude
Unknown
Altitude
Unknown
Speed
Unknown
Apparent Right ascension
Unknown
Apparent Declination
Unknown
Sunlit
N/A
Visualization observer readout
Local Sidereal Time
01:36:09
Azimuth
Unknown
Elevation
Unknown
Doppler factor
Unknown
Orbital elements
Apogee altitude
35,826.766 km
Perigee altitude
35,774.506 km
Semi-major axis
42,178.773 km
Eccentricity
0.00062
Inclination
12.2208°
RAAN
334.3812°
Arg. of periapsis
280.342°
True anomaly
91.53526°
Mean anomaly
91.4643°
Eccentric anomaly
91.49978°
Mean motion
0.25055 °/min
Orbital period
1,436.81 mins
BSTAR
0
Loading maneuver chart data...
Computing Atmospheric mass density...
Loading historical data...
Loading historical data...
Loading historical data...
Loading historical data...
Loading historical data...
Loading historical data...
Loading historical data...

Documentation

Showing up to 5 results
|